User: anonymous   Login
Location: Ferma
(41.9500°N, 44.5167°E)
Time: 12:52:39
(UTC+00:00)
Language:

BREEZE-M DEB (TANK) - Orbit

View from above orbital plane
View from above orbital plane
View from above satellite
View from above satellite

Ground track
Ground track

The orbit data is extracted from the following two-line orbital elements,

1 39362U 13058C   22273.12110115  .00001696  00000-0  54758-3 0  9992
2 39362  49.5461 293.0189 5178638 356.2502   1.0618  5.27881779171118
Epoch (UTC): 30 September 2022 02:54:23
Eccentricity: 0.5178638
inclination: 49.5461°
perigee height: 339 km
apogee height: 14770 km
right ascension of ascending node: 293.0189°
argument of perigee: 356.2502°
revolutions per day: 5.27881779
mean anomaly at epoch: 1.0618°
orbit number at epoch: 17111

The dashed part of the orbit path shows where the satellite is in the earth's shadow,  

DLR